Temperature
18 18 17 17 17 17 17 17 17 17 17 17 17 17 17 17 17 16 16 16 16 16 16 16 16 16 16 16 16 16 15 15 15 15 15 15 15 15 15 15 14 15 15
18 17 18 17 17 17 17 17 17 17 17 17 17 17 17 17 16 16 16 16 16 16 16 16 15 15 15 16 15 15 15 15 15 15 15 15 15 15 15 15 15 15 15
18 17 17 17 17 17 17 17 17 17 17 17 17 17 17 16 16 16 16 16 16 15 16 15 15 15 15 15 15 15 15 15 15 15 14 14 14 15 15 15 14 14 14
18 17 17 17 17 17 17 17 17 17 17 17 17 16 16 16 16 16 16 16 16 15 15 15 15 15 15 15 15 15 15 15 15 14 14 14 14 14 14 14 14 14 14
17 17 17 17 17 17 17 17 17 17 17 16 16 16 16 16 16 16 16 16 16 15 15 15 15 15 15 15 15 15 15 15 15 14 14 13 14 14 14 14 14 14 14
17 16 17 17 17 16 16 17 17 17 16 16 16 16 16 16 16 16 15 15 15 15 15 15 15 15 15 15 15 15 15 14 14 14 13 13 13 14 14 14 13 14 14
16 16 16 16 16 16 16 16 16 16 16 16 16 16 16 15 15 15 15 15 15 15 15 15 14 15 15 15 15 14 14 14 13 13 13 13 13 13 13 13 13 13 13
16 16 16 16 16 16 16 16 16 16 16 16 16 16 15 15 15 15 15 15 15 15 14 14 14 14 14 14 14 14 14 14 13 13 13 13 13 13 13 13 13 13 13
16 16 16 16 16 16 16 16 16 16 16 16 16 15 15 15 15 15 15 15 14 14 14 14 14 14 14 14 14 14 14 14 13 13 13 13 13 13 13 13 13 13 13
15 15 15 15 15 15 15 16 16 16 15 15 15 15 15 15 15 14 14 14 14 14 14 14 14 14 14 14 14 14 14 13 13 13 12 13 13 13 13 13 13 13 13
15 15 15 15 15 15 15 15 15 15 15 15 15 15 15 14 14 14 14 14 14 14 14 14 14 14 14 14 14 13 13 13 13 12 12 13 13 13 13 13 13 12 12
15 15 15 15 15 15 15 15 15 15 15 14 14 14 14 14 14 14 14 14 14 14 14 14 14 13 13 13 13 13 13 13 12 12 12 13 13 12 12 12 12 12 12
15 15 15 15 15 15 15 15 15 15 14 14 14 14 14 14 14 14 14 14 14 14 13 13 13 13 13 13 13 13 13 13 12 12 12 12 12 12 12 12 12 12 12
14 15 15 15 15 15 15 15 14 14 14 14 14 14 14 14 14 14 14 14 14 13 13 13 13 13 13 13 13 13 12 12 12 12 12 12 12 12 12 12 11 11 11
14 15 15 15 15 15 15 14 14 14 14 14 14 14 14 14 13 13 13 13 13 13 13 13 13 13 13 12 12 12 12 12 12 12 12 12 12 12 11 11 11 11 11
14 14 15 15 15 15 15 14 14 14 14 14 14 14 14 13 13 13 13 13 13 13 13 13 12 12 12 12 12 12 12 12 11 11 11 11 11 11 11 11 11 11 10
14 14 15 15 15 14 14 14 14 14 14 14 14 14 13 13 13 13 13 13 13 13 12 12 12 12 12 12 12 12 12 11 11 11 11 11 11 11 11 11 11 10 10
14 14 15 15 15 14 14 14 14 14 14 14 14 13 13 13 13 13 13 13 13 12 12 12 12 12 12 12 12 11 11 11 11 11 10 10 10 10 10 10 10 10 10
14 14 14 15 14 14 14 14 14 14 14 14 13 13 13 13 13 13 13 13 12 12 12 12 12 12 11 11 11 11 11 11 11 10 10 10 10 10 10 10 10 10 10
14 14 14 14 14 14 14 14 14 13 13 13 13 13 13 13 13 13 12 12 12 12 12 11 11 11 11 11 11 11 10 10 10 10 10 10 10 10 10 9 9 9 9
14 14 14 14 14 14 14 14 13 13 13 13 13 13 13 13 13 12 12 12 12 12 11 11 11 11 11 10 10 10 9 9 10 9 9 9 9 9 9 9 9 9 9
13 14 14 14 14 14 14 13 13 13 13 13 13 13 13 12 12 12 12 12 12 11 11 11 11 11 10 10 9 9 9 9 9 9 9 9 9 9 9 9 8 8 8
13 14 14 14 14 14 13 13 13 13 13 12 12 12 12 12 12 12 12 11 11 11 11 11 10 10 10 10 9 9 9 9 8 8 9 8 8 8 8 8 8 8 8
13 13 13 13 13 13 13 13 13 12 12 12 12 12 12 12 12 12 11 11 11 11 11 10 10 10 10 9 9 9 9 8 8 7 8 8 8 8 8 8 8 7 7
13 13 13 13 13 13 13 12 12 12 12 12 12 12 12 12 11 11 11 11 11 11 10 10 10 10 9 9 9 9 8 8 7 7 7 7 7 7 7 7 7 7 7
12 13 13 13 12 12 12 12 12 12 12 11 11 11 11 11 11 11 11 11 10 10 10 10 10 9 9 9 8 8 8 7 7 7 6 6 6 6 7 7 6 6 6
Wind_Speed
11 14 16 16 15 15 16 16 16 16 16 16 15 15 15 14 14 14 13 13 13 13 13 13 13 13 13 14 14 14 14 13 13 13 13 13 13 12 11 9 8 10 11
15 17 18 17 16 16 16 17 16 16 16 16 15 15 14 14 13 13 13 13 13 13 13 13 13 14 13 14 14 13 13 13 13 12 11 12 12 12 12 11 11 10 10
17 18 19 17 17 17 17 17 16 16 16 15 15 15 14 14 13 13 13 13 13 13 13 13 13 13 13 13 13 13 13 12 11 9 6 9 11 11 11 11 11 10 9
17 17 18 19 17 17 17 17 16 16 16 15 15 14 14 13 13 13 12 12 13 13 12 13 13 13 13 13 13 12 12 11 9 5 7 8 9 10 10 10 11 11 10
16 17 18 19 18 18 17 17 16 16 15 15 14 14 13 13 13 13 12 12 12 12 12 12 12 12 12 12 12 12 11 10 7 6 8 8 9 10 10 10 10 10 10
15 17 19 18 18 17 17 17 16 16 15 14 14 14 13 13 13 12 12 12 12 12 12 12 12 12 12 11 11 11 10 7 5 7 7 7 8 9 9 9 8 9 9
15 15 19 18 17 17 17 16 16 15 15 14 13 13 13 13 13 12 12 12 12 11 11 11 11 12 12 11 11 10 9 6 6 7 7 7 8 9 8 8 8 8 9
14 14 17 17 17 17 17 16 16 15 14 14 13 13 13 13 13 12 11 11 11 11 11 10 10 11 11 11 11 10 8 5 5 6 6 7 8 7 8 8 8 8 8
13 13 14 16 16 16 16 16 15 15 14 13 13 12 13 12 12 11 11 10 10 10 10 10 10 10 10 10 10 9 8 5 4 5 5 6 7 7 7 7 7 7 7
12 12 12 14 14 15 15 15 15 14 14 13 12 12 12 12 11 10 10 10 9 9 10 10 10 10 10 9 9 8 6 3 5 5 5 7 7 7 7 7 7 7 7
11 11 11 12 12 13 13 14 14 13 13 12 11 12 11 9 9 8 8 9 9 9 9 9 9 9 8 8 8 6 4 3 5 5 6 8 7 6 6 7 7 7 7
13 11 10 11 11 11 11 12 11 10 11 10 10 10 8 7 6 7 9 9 8 8 9 9 8 7 4 5 5 3 3 3 4 5 6 8 6 6 6 6 6 6 6
13 11 10 10 10 10 9 9 8 8 8 8 9 9 7 7 6 6 6 7 7 7 6 6 5 4 4 3 3 3 3 3 3 4 6 8 7 6 6 6 6 6 6
13 12 10 10 9 9 9 8 8 7 7 7 8 8 7 6 5 5 5 5 5 4 4 4 3 4 3 3 3 3 3 3 3 3 6 7 7 7 6 6 6 6 6
12 12 11 10 10 9 8 6 7 7 7 7 7 7 7 6 5 5 4 5 4 4 4 3 3 3 3 2 2 2 2 3 3 3 4 6 6 6 6 6 6 6 6
13 12 11 11 10 10 8 7 6 6 7 7 6 7 7 6 5 5 4 4 4 4 3 3 3 2 2 2 2 2 1 2 2 2 2 4 5 5 6 6 6 6 6
12 11 11 10 10 10 9 8 6 7 7 6 6 7 7 6 6 5 4 4 4 4 4 3 3 2 2 2 1 1 1 1 1 1 1 1 3 4 5 6 6 6 7
11 11 10 9 10 10 8 8 6 7 7 6 6 6 7 7 7 5 4 4 4 4 4 3 3 2 2 2 1 1 1 1 1 1 1 1 1 2 3 5 6 6 7
11 12 11 10 10 9 8 7 6 6 5 5 6 6 6 7 7 6 4 4 5 4 3 3 3 2 2 1 1 1 0 1 1 1 1 1 1 1 2 3 4 5 7
11 11 11 11 10 9 7 6 5 5 4 5 5 6 7 7 7 6 5 5 5 4 4 4 3 2 2 2 1 1 0 0 1 1 1 1 0 1 2 3 3 4 5
11 11 11 10 10 9 7 7 6 5 5 4 4 6 7 7 7 6 5 5 5 4 5 5 4 3 2 2 2 1 1 1 1 1 1 1 1 2 2 3 4 4 4
12 12 11 11 10 10 8 6 5 5 4 4 4 5 6 6 7 6 6 5 5 4 5 5 5 3 2 2 2 2 2 2 2 2 2 2 2 2 2 3 4 4 5
12 12 10 11 10 10 9 6 5 4 4 4 4 4 5 6 6 6 6 6 5 5 5 5 6 5 4 3 2 2 2 3 1 2 2 2 3 3 3 3 4 5 5
11 10 10 11 10 10 10 9 10 7 7 6 5 4 5 5 6 6 6 6 6 5 5 5 5 5 5 4 2 2 2 1 2 2 2 2 3 4 4 4 4 5 6
9 9 9 10 10 10 10 10 10 8 6 5 5 6 5 4 5 5 5 5 5 5 5 5 5 5 5 5 4 2 2 2 3 3 4 3 4 4 4 4 4 5 6
8 8 8 9 9 9 10 10 10 9 8 7 7 6 5 4 4 5 5 5 5 5 5 5 5 5 5 5 4 4 3 3 3 4 4 5 5 4 5 4 4 4 5
Wind_Direction
156 153 145 144 140 134 130 128 126 124 122 120 117 114 111 107 104 103 101 98 95 94 94 93 95 97 94 92 90 88 86 83 81 80 78 76 74 73 71 67 70 77 71
150 151 145 145 141 136 132 127 125 124 123 121 118 116 113 111 108 105 103 101 98 96 95 95 95 95 94 91 89 87 86 83 82 81 84 86 77 72 70 62 58 69 70
148 149 150 145 143 138 134 129 127 126 125 124 122 119 116 114 111 109 106 103 100 98 95 95 94 94 93 92 90 88 86 83 81 82 89 85 81 72 71 66 65 68 69
148 150 151 143 143 140 136 133 131 129 128 125 123 122 120 117 113 110 107 104 100 98 97 97 96 94 94 92 91 89 87 83 78 77 78 74 76 73 71 68 64 63 64
149 150 144 143 144 142 140 138 135 132 130 128 126 125 123 119 115 110 108 106 102 100 100 99 97 95 93 92 91 91 89 86 81 73 72 71 72 72 70 68 64 60 59
149 149 144 145 145 143 142 140 138 136 133 131 129 127 124 121 117 112 108 106 104 103 103 101 98 96 94 92 93 93 91 87 92 75 71 68 69 69 67 65 59 57 56
149 147 147 147 146 145 144 141 139 138 135 132 131 128 125 121 117 114 111 108 107 107 104 101 99 96 93 92 94 93 91 78 76 77 73 68 63 63 63 61 57 56 54
148 147 147 146 145 145 144 143 142 140 138 135 133 128 125 122 119 118 116 114 111 107 104 102 102 100 97 94 92 91 88 78 85 78 76 71 58 59 62 60 56 53 53
149 149 150 153 150 146 144 143 142 141 139 137 135 131 127 124 123 121 118 116 115 110 106 104 104 104 100 95 92 90 84 68 74 77 72 64 55 65 65 58 53 51 48
152 153 153 156 155 154 150 143 141 140 138 136 135 132 129 128 127 126 125 118 117 113 109 107 106 104 102 96 92 90 90 92 75 77 69 64 57 63 64 59 53 49 44
157 159 159 157 155 154 151 147 146 143 141 143 140 137 142 145 140 136 122 119 120 119 115 114 111 107 107 102 96 97 106 88 83 73 67 55 53 54 58 58 50 45 40
165 164 163 162 158 156 153 155 157 155 156 160 155 154 157 150 142 135 122 120 121 124 122 117 116 120 126 116 113 122 96 87 83 79 66 53 50 52 56 53 45 39 38
168 165 166 164 161 160 159 160 159 159 160 162 160 159 157 151 147 148 146 144 141 142 137 133 139 123 111 103 103 98 82 81 82 79 66 54 48 50 53 50 41 35 34
171 172 170 169 167 167 165 164 164 163 163 162 165 166 163 156 156 154 156 155 154 153 149 147 134 120 115 112 107 102 97 91 89 81 65 57 48 47 47 46 41 40 38
176 175 175 175 173 171 170 169 171 169 167 165 167 173 172 164 163 159 158 156 157 155 153 143 142 132 127 116 105 105 103 102 98 91 83 69 56 47 42 40 35 33 31
181 178 176 178 177 176 176 176 174 173 169 169 170 174 175 170 167 166 163 159 159 159 152 147 143 144 139 129 120 119 124 121 114 114 104 92 75 53 38 29 21 17 14
182 179 177 177 179 180 179 178 174 174 173 173 173 175 176 174 172 170 168 163 160 157 152 148 144 149 149 142 148 142 144 143 136 126 123 96 87 71 44 23 11 3 1
183 181 177 175 180 180 178 176 175 176 176 175 175 177 180 181 178 173 173 172 168 161 160 163 170 168 175 179 179 156 145 138 162 138 131 106 72 55 45 28 10 1 354
185 181 177 176 178 176 174 172 171 171 173 174 177 179 183 185 184 179 180 178 173 169 171 174 184 185 182 176 163 149 141 157 166 164 155 121 60 16 359 19 3 349 346
185 181 178 175 176 171 167 165 163 166 173 176 181 184 185 186 187 185 180 183 180 181 183 181 178 179 182 164 138 113 73 203 198 200 219 222 292 309 321 332 333 339 338
184 183 181 178 177 174 171 173 174 178 178 180 179 184 186 187 187 186 183 183 187 193 191 186 178 174 181 166 171 185 205 222 232 244 260 275 287 297 309 322 324 323 326
187 188 186 186 183 182 180 177 181 174 179 179 173 180 187 189 189 188 189 188 189 191 193 191 186 188 192 198 216 220 226 222 211 256 261 270 281 290 309 315 315 315 312
190 191 190 188 186 184 177 168 159 161 170 179 180 183 190 193 192 188 190 189 189 191 195 198 195 198 198 200 223 233 243 247 270 226 256 263 277 283 298 307 307 309 308
192 191 193 189 187 184 180 180 180 186 189 194 187 186 185 189 187 187 190 190 190 193 196 200 205 208 202 201 204 241 270 278 251 257 246 268 291 292 292 297 301 302 303
185 184 188 189 187 186 188 187 189 193 190 181 180 180 181 182 183 184 187 187 190 193 197 198 200 208 210 210 206 211 234 256 255 258 270 277 286 288 295 296 292 294 298
180 178 180 184 185 186 190 191 192 189 184 179 182 182 184 184 185 186 186 187 191 193 197 201 201 205 212 216 215 213 225 236 246 255 270 282 283 289 289 287 284 291 299
Height
1519 1522 1524 1526 1529 1531 1532 1534 1535 1537 1538 1538 1539 1540 1540 1540 1541 1541 1541 1541 1542 1542 1542 1542 1542 1542 1542 1542 1542 1542 1542 1542 1542 1542 1542 1542 1541 1541 1541 1541 1541 1541 1540
1518 1521 1524 1526 1529 1531 1533 1535 1536 1537 1538 1539 1540 1541 1541 1542 1542 1542 1542 1543 1543 1543 1543 1543 1543 1543 1543 1543 1543 1544 1544 1544 1544 1543 1543 1543 1543 1542 1542 1542 1542 1542 1541
1518 1521 1524 1527 1529 1532 1534 1535 1537 1538 1539 1540 1541 1542 1542 1543 1543 1543 1544 1544 1544 1544 1544 1544 1544 1544 1545 1545 1545 1545 1545 1545 1545 1545 1545 1545 1544 1544 1543 1543 1543 1543 1542
1519 1522 1524 1527 1530 1532 1534 1536 1537 1539 1540 1541 1542 1543 1543 1544 1544 1544 1545 1545 1545 1545 1545 1545 1545 1546 1546 1546 1546 1546 1546 1546 1546 1546 1547 1547 1546 1545 1545 1544 1544 1544 1543
1519 1522 1525 1527 1530 1532 1535 1536 1538 1539 1541 1542 1543 1543 1544 1545 1545 1545 1546 1546 1546 1546 1546 1546 1547 1547 1547 1547 1547 1547 1547 1547 1547 1547 1548 1547 1547 1546 1546 1545 1545 1544 1544
1520 1523 1525 1528 1531 1533 1535 1537 1538 1540 1541 1542 1543 1544 1545 1545 1546 1546 1547 1547 1547 1547 1547 1547 1548 1548 1548 1548 1548 1548 1548 1548 1548 1548 1548 1548 1548 1547 1547 1546 1546 1545 1545
1521 1523 1526 1528 1531 1533 1535 1537 1539 1540 1542 1543 1544 1545 1546 1546 1547 1547 1547 1548 1548 1548 1548 1548 1549 1549 1549 1549 1548 1548 1548 1549 1549 1549 1549 1549 1548 1548 1547 1547 1546 1546 1545
1521 1524 1526 1529 1531 1534 1536 1538 1539 1541 1542 1543 1544 1545 1546 1547 1547 1548 1548 1548 1549 1549 1549 1549 1549 1549 1549 1549 1549 1549 1549 1549 1550 1550 1550 1549 1548 1548 1548 1547 1546 1546 1545
1521 1524 1527 1529 1532 1534 1536 1538 1540 1541 1543 1544 1545 1546 1547 1547 1548 1548 1549 1549 1549 1549 1550 1550 1550 1550 1550 1550 1550 1550 1550 1550 1551 1551 1550 1550 1549 1548 1548 1547 1546 1546 1545
1521 1524 1527 1529 1532 1534 1536 1538 1540 1541 1543 1544 1545 1546 1547 1548 1548 1549 1549 1549 1550 1550 1550 1550 1550 1550 1550 1550 1550 1550 1550 1551 1551 1551 1550 1550 1549 1548 1548 1547 1546 1546 1545
1521 1524 1526 1529 1531 1534 1536 1538 1539 1541 1543 1544 1545 1546 1547 1548 1548 1549 1549 1549 1550 1550 1550 1550 1550 1551 1551 1551 1551 1551 1551 1551 1551 1551 1550 1550 1549 1549 1548 1547 1546 1545 1544
1519 1522 1525 1528 1531 1533 1535 1537 1539 1541 1542 1543 1545 1545 1547 1547 1548 1548 1549 1549 1550 1550 1550 1551 1551 1551 1551 1551 1551 1551 1551 1551 1551 1551 1550 1550 1549 1548 1547 1546 1546 1545 1544
1518 1521 1524 1527 1530 1532 1534 1536 1538 1540 1541 1542 1544 1545 1546 1547 1547 1548 1548 1549 1549 1550 1550 1550 1551 1551 1551 1551 1551 1551 1551 1551 1551 1550 1550 1549 1548 1548 1547 1546 1545 1544 1543
1517 1520 1523 1526 1528 1531 1533 1535 1537 1538 1540 1541 1542 1544 1545 1546 1546 1547 1548 1548 1549 1549 1550 1550 1550 1550 1551 1551 1551 1551 1550 1550 1550 1550 1549 1548 1548 1547 1546 1545 1544 1543 1542
1516 1518 1521 1524 1527 1529 1532 1534 1536 1537 1539 1540 1541 1542 1544 1544 1545 1546 1547 1547 1548 1548 1549 1549 1550 1550 1550 1550 1550 1550 1550 1549 1549 1549 1548 1547 1546 1546 1545 1544 1543 1542 1541
1514 1517 1519 1522 1525 1528 1530 1532 1534 1536 1537 1539 1540 1541 1542 1543 1544 1545 1546 1546 1547 1547 1548 1548 1549 1549 1549 1549 1549 1549 1548 1548 1548 1547 1547 1546 1545 1545 1544 1543 1542 1540 1539
1512 1515 1517 1520 1523 1526 1528 1530 1532 1534 1535 1537 1538 1539 1541 1542 1543 1543 1544 1545 1545 1546 1547 1547 1547 1548 1548 1547 1547 1547 1547 1547 1546 1546 1545 1545 1544 1543 1542 1541 1540 1539 1538
1510 1512 1515 1518 1521 1523 1526 1528 1530 1532 1533 1535 1536 1537 1539 1540 1541 1542 1543 1543 1544 1545 1545 1545 1546 1546 1546 1546 1546 1546 1545 1545 1545 1544 1544 1543 1542 1541 1540 1539 1538 1537 1536
1507 1510 1512 1515 1518 1521 1523 1525 1527 1529 1531 1532 1534 1535 1536 1538 1539 1540 1541 1541 1542 1543 1543 1543 1544 1544 1544 1544 1544 1544 1543 1543 1543 1542 1542 1541 1540 1539 1538 1537 1536 1535 1533
1504 1507 1510 1513 1515 1518 1521 1523 1525 1527 1528 1530 1531 1533 1534 1535 1537 1538 1538 1539 1540 1540 1541 1541 1542 1542 1542 1542 1542 1541 1541 1541 1540 1540 1540 1539 1538 1537 1536 1535 1534 1532 1531
1501 1504 1507 1509 1512 1515 1517 1519 1521 1523 1525 1527 1528 1530 1531 1533 1534 1535 1536 1536 1537 1538 1538 1539 1539 1540 1540 1539 1539 1539 1539 1538 1538 1537 1537 1537 1536 1535 1534 1532 1531 1530 1528
1497 1500 1503 1506 1509 1511 1514 1516 1518 1520 1522 1524 1525 1527 1528 1530 1531 1532 1533 1533 1534 1535 1536 1536 1536 1537 1537 1537 1537 1537 1537 1538 1535 1535 1534 1533 1533 1532 1531 1529 1528 1526 1525
1493 1496 1499 1502 1505 1508 1510 1513 1515 1517 1519 1521 1522 1523 1525 1526 1528 1529 1530 1531 1531 1532 1532 1533 1533 1534 1534 1534 1535 1536 1536 1534 1533 1532 1531 1530 1529 1528 1527 1526 1525 1523 1521
1489 1493 1496 1499 1502 1504 1507 1509 1511 1513 1515 1517 1519 1520 1522 1523 1524 1525 1526 1527 1528 1529 1529 1530 1530 1531 1531 1531 1531 1531 1532 1531 1531 1529 1528 1527 1526 1525 1524 1522 1521 1519 1518
1485 1488 1492 1495 1498 1501 1503 1506 1508 1510 1512 1514 1515 1517 1518 1519 1521 1522 1523 1524 1525 1525 1526 1527 1527 1527 1527 1528 1528 1528 1528 1528 1527 1527 1525 1523 1523 1522 1520 1519 1517 1515 1514
1481 1484 1487 1490 1494 1497 1499 1502 1504 1506 1508 1510 1512 1513 1514 1515 1517 1518 1519 1520 1521 1522 1523 1523 1523 1524 1524 1524 1524 1524 1524 1524 1523 1523 1522 1520 1519 1517 1516 1514 1513 1511 1509